Location: Fontevrault
(47.1823°N, 0.0493°E)
Time: 10:29:36
(UTC+00:00)

DNEPR-1 R/B - Pass Details

Date: 16 June 2021
Orbit: 588 x 1334 km, 64.6° (Epoch: 27 July)

Event Time Altitude Azimuth Distance (km) Brightness Sun altitude
Rises 22:42:47 0° 318° (NW) 2,834 8.2 -17.3°
Reaches altitude 10° 22:45:03 10° 313° (NW) 1,922 7.0 -17.4°
Maximum altitude 22:49:08 50° 238° (WSW) 770 3.9 -17.6°
Enters shadow 22:50:35 35° 185° (S) 1,001 4.1 -17.7°
